Year,Month,Day,Hour,Minute,Value (Times are PST for temperature in C)
2012,06,25,00,00,10.60
2012,06,25,00,01,10.60
2012,06,25,00,02,10.60
2012,06,25,00,03,10.50
2012,06,25,00,04,10.50
2012,06,25,00,05,10.50
2012,06,25,00,06,10.50
2012,06,25,00,07,10.40
2012,06,25,00,08,10.40
2012,06,25,00,09,10.40
2012,06,25,00,10,10.40
2012,06,25,00,11,10.40
2012,06,25,00,12,10.40
2012,06,25,00,13,10.40
2012,06,25,00,14,10.40
2012,06,25,00,15,10.40
2012,06,25,00,16,10.40
2012,06,25,00,17,10.40
2012,06,25,00,18,10.40
2012,06,25,00,19,10.40
2012,06,25,00,20,10.40
2012,06,25,00,21,10.40
2012,06,25,00,22,10.40
2012,06,25,00,23,10.30
2012,06,25,00,24,10.30
2012,06,25,00,25,10.30
2012,06,25,00,26,10.30
2012,06,25,00,27,10.30
2012,06,25,00,28,10.30
2012,06,25,00,29,10.30
2012,06,25,00,30,10.30
2012,06,25,00,31,10.30
2012,06,25,00,32,10.30
2012,06,25,00,33,10.30
2012,06,25,00,34,10.30
2012,06,25,00,35,10.20
2012,06,25,00,36,10.20
2012,06,25,00,37,10.20
2012,06,25,00,38,10.20
2012,06,25,00,39,10.20
2012,06,25,00,40,10.20
2012,06,25,00,41,10.20
2012,06,25,00,42,10.20
2012,06,25,00,43,10.10
2012,06,25,00,44,10.10
2012,06,25,00,45,10.10
2012,06,25,00,46,10.10
2012,06,25,00,47,10.10
2012,06,25,00,48,10.00
2012,06,25,00,49,10.00
2012,06,25,00,50,10.00
2012,06,25,00,51,10.00
2012,06,25,00,52,10.00
2012,06,25,00,53,10.00
2012,06,25,00,54,10.00
2012,06,25,00,55,10.10
2012,06,25,00,56,10.10
2012,06,25,00,57,10.10
2012,06,25,00,58,10.10
2012,06,25,00,59,10.10
2012,06,25,01,00,10.10
2012,06,25,01,01,10.10
2012,06,25,01,02,10.20
2012,06,25,01,03,10.20
2012,06,25,01,04,10.20
2012,06,25,01,05,10.20
2012,06,25,01,06,10.10
2012,06,25,01,07,10.10
2012,06,25,01,08,10.10
2012,06,25,01,09,10.10
2012,06,25,01,10,10.10
2012,06,25,01,11,10.10
2012,06,25,01,12,10.10
2012,06,25,01,13,10.10
2012,06,25,01,14,10.10
2012,06,25,01,15,10.10
2012,06,25,01,16,10.10
2012,06,25,01,17,10.10
2012,06,25,01,18,10.10
2012,06,25,01,19,10.10
2012,06,25,01,20,10.10
2012,06,25,01,21,10.10
2012,06,25,01,22,10.10
2012,06,25,01,23,10.10
2012,06,25,01,24,10.10
2012,06,25,01,25,10.10
2012,06,25,01,26,10.10
2012,06,25,01,27,10.10
2012,06,25,01,28,10.10
2012,06,25,01,29,10.10
2012,06,25,01,30,10.20
2012,06,25,01,31,10.20
2012,06,25,01,32,10.20
2012,06,25,01,33,10.20
2012,06,25,01,34,10.20
2012,06,25,01,35,10.30
2012,06,25,01,36,10.30
2012,06,25,01,37,10.30
2012,06,25,01,38,10.40
2012,06,25,01,39,10.40
2012,06,25,01,40,10.40
2012,06,25,01,41,10.40
2012,06,25,01,42,10.40
2012,06,25,01,43,10.40
2012,06,25,01,44,10.40
2012,06,25,01,45,10.40
2012,06,25,01,46,10.40
2012,06,25,01,47,10.40
2012,06,25,01,48,10.40
2012,06,25,01,49,10.30
2012,06,25,01,50,10.30
2012,06,25,01,51,10.30
2012,06,25,01,52,10.30
2012,06,25,01,53,10.30
2012,06,25,01,54,10.30
2012,06,25,01,55,10.30
2012,06,25,01,56,10.30
2012,06,25,01,57,10.20
2012,06,25,01,58,10.30
2012,06,25,01,59,10.30
2012,06,25,02,00,10.30
2012,06,25,02,01,10.30
2012,06,25,02,02,10.30
2012,06,25,02,03,10.30
2012,06,25,02,04,10.30
2012,06,25,02,05,10.30
2012,06,25,02,06,10.30
2012,06,25,02,07,10.30
2012,06,25,02,08,10.30
2012,06,25,02,09,10.30
2012,06,25,02,10,10.30
2012,06,25,02,11,10.30
2012,06,25,02,12,10.30
2012,06,25,02,13,10.30
2012,06,25,02,14,10.30
2012,06,25,02,15,10.30
2012,06,25,02,16,10.30
2012,06,25,02,17,10.30
2012,06,25,02,18,10.30
2012,06,25,02,19,10.30
2012,06,25,02,20,10.30
2012,06,25,02,21,10.30
2012,06,25,02,22,10.30
2012,06,25,02,23,10.30
2012,06,25,02,24,10.30
2012,06,25,02,25,10.30
2012,06,25,02,26,10.30
2012,06,25,02,27,10.30
2012,06,25,02,28,10.30
2012,06,25,02,29,10.30
2012,06,25,02,30,10.30
2012,06,25,02,31,10.30
2012,06,25,02,32,10.30
2012,06,25,02,33,10.30
2012,06,25,02,34,10.30
2012,06,25,02,35,10.30
2012,06,25,02,36,10.30
2012,06,25,02,37,10.30
2012,06,25,02,38,10.30
2012,06,25,02,39,10.30
2012,06,25,02,40,10.30
2012,06,25,02,41,10.30
2012,06,25,02,42,10.30
2012,06,25,02,43,10.30
2012,06,25,02,44,10.30
2012,06,25,02,45,10.30
2012,06,25,02,46,10.30
2012,06,25,02,47,10.30
2012,06,25,02,48,10.30
2012,06,25,02,49,10.40
2012,06,25,02,50,10.40
2012,06,25,02,51,10.40
2012,06,25,02,52,10.40
2012,06,25,02,53,10.40
2012,06,25,02,54,10.40
2012,06,25,02,55,10.40
2012,06,25,02,56,10.50
2012,06,25,02,57,10.50
2012,06,25,02,58,10.50
2012,06,25,02,59,10.50
2012,06,25,03,00,10.50
2012,06,25,03,01,10.50
2012,06,25,03,02,10.50
2012,06,25,03,03,10.60
2012,06,25,03,04,10.60
2012,06,25,03,05,10.60
2012,06,25,03,06,10.60
2012,06,25,03,07,10.60
2012,06,25,03,08,10.60
2012,06,25,03,09,10.60
2012,06,25,03,10,10.60
2012,06,25,03,11,10.60
2012,06,25,03,12,10.60
2012,06,25,03,13,10.60
2012,06,25,03,14,10.60
2012,06,25,03,15,10.60
2012,06,25,03,16,10.60
2012,06,25,03,17,10.60
2012,06,25,03,18,10.60
2012,06,25,03,19,10.60
2012,06,25,03,20,10.60
2012,06,25,03,21,10.60
2012,06,25,03,22,10.60
2012,06,25,03,23,10.60
2012,06,25,03,24,10.60
2012,06,25,03,25,10.60
2012,06,25,03,26,10.60
2012,06,25,03,27,10.60
2012,06,25,03,28,10.60
2012,06,25,03,29,10.60
2012,06,25,03,30,10.60
2012,06,25,03,31,10.60
2012,06,25,03,32,10.60
2012,06,25,03,33,10.60
2012,06,25,03,34,10.60
2012,06,25,03,35,10.50
2012,06,25,03,36,10.50
2012,06,25,03,37,10.50
2012,06,25,03,38,10.50
2012,06,25,03,39,10.50
2012,06,25,03,40,10.50
2012,06,25,03,41,10.50
2012,06,25,03,42,10.50
2012,06,25,03,43,10.40
2012,06,25,03,44,10.40
2012,06,25,03,45,10.40
2012,06,25,03,46,10.40
2012,06,25,03,47,10.40
2012,06,25,03,48,10.40
2012,06,25,03,49,10.40
2012,06,25,03,50,10.30
2012,06,25,03,51,10.30
2012,06,25,03,52,10.30
2012,06,25,03,53,10.30
2012,06,25,03,54,10.30
2012,06,25,03,55,10.30
2012,06,25,03,56,10.30
2012,06,25,03,57,10.30
2012,06,25,03,58,10.30
2012,06,25,03,59,10.30
2012,06,25,04,00,10.30
2012,06,25,04,01,10.30
2012,06,25,04,02,10.30
2012,06,25,04,03,10.30
2012,06,25,04,04,10.30
2012,06,25,04,05,10.20
2012,06,25,04,06,10.20
2012,06,25,04,07,10.20
2012,06,25,04,08,10.20
2012,06,25,04,09,10.20
2012,06,25,04,10,10.20
2012,06,25,04,11,10.20
2012,06,25,04,12,10.20
2012,06,25,04,13,10.20
2012,06,25,04,14,10.20
2012,06,25,04,15,10.20
2012,06,25,04,16,10.20
2012,06,25,04,17,10.20
2012,06,25,04,18,10.20
2012,06,25,04,19,10.10
2012,06,25,04,20,10.10
2012,06,25,04,21,10.10
2012,06,25,04,22,10.10
2012,06,25,04,23,10.20
2012,06,25,04,24,10.10
2012,06,25,04,25,10.10
2012,06,25,04,26,10.20
2012,06,25,04,27,10.20
2012,06,25,04,28,10.20
2012,06,25,04,29,10.20
2012,06,25,04,30,10.20
2012,06,25,04,31,10.20
2012,06,25,04,32,10.10
2012,06,25,04,33,10.10
2012,06,25,04,34,10.10
2012,06,25,04,35,10.10
2012,06,25,04,36,10.10
2012,06,25,04,37,10.10
2012,06,25,04,38,10.10
2012,06,25,04,39,10.10
2012,06,25,04,40,10.10
2012,06,25,04,41,10.20
2012,06,25,04,42,10.20
2012,06,25,04,43,10.20
2012,06,25,04,44,10.20
2012,06,25,04,45,10.20
2012,06,25,04,46,10.20
2012,06,25,04,47,10.20
2012,06,25,04,48,10.20
2012,06,25,04,49,10.20
2012,06,25,04,50,10.20
2012,06,25,04,51,10.20
2012,06,25,04,52,10.20
2012,06,25,04,53,10.20
2012,06,25,04,54,10.20
2012,06,25,04,55,10.20
2012,06,25,04,56,10.20
2012,06,25,04,57,10.20
2012,06,25,04,58,10.20
2012,06,25,04,59,10.30
2012,06,25,05,00,10.30
2012,06,25,05,01,10.30
2012,06,25,05,02,10.30
2012,06,25,05,03,10.30
2012,06,25,05,04,10.30
2012,06,25,05,05,10.30
2012,06,25,05,06,10.30
2012,06,25,05,07,10.30
2012,06,25,05,08,10.30
2012,06,25,05,09,10.30
2012,06,25,05,10,10.30
2012,06,25,05,11,10.30
2012,06,25,05,12,10.40
2012,06,25,05,13,10.40
2012,06,25,05,14,10.40
2012,06,25,05,15,10.40
2012,06,25,05,16,10.40
2012,06,25,05,17,10.40
2012,06,25,05,18,10.40
2012,06,25,05,19,10.40
2012,06,25,05,20,10.40
2012,06,25,05,21,10.40
2012,06,25,05,22,10.40
2012,06,25,05,23,10.40
2012,06,25,05,24,10.50
2012,06,25,05,25,10.50
2012,06,25,05,26,10.50
2012,06,25,05,27,10.50
2012,06,25,05,28,10.50
2012,06,25,05,29,10.50
2012,06,25,05,30,10.50
2012,06,25,05,31,10.50
2012,06,25,05,32,10.50
2012,06,25,05,33,10.50
2012,06,25,05,34,10.50
2012,06,25,05,35,10.50
2012,06,25,05,36,10.50
2012,06,25,05,37,10.50
2012,06,25,05,38,10.50
2012,06,25,05,39,10.50
2012,06,25,05,40,10.50
2012,06,25,05,41,10.60
2012,06,25,05,42,10.60
2012,06,25,05,43,10.60
2012,06,25,05,44,10.60
2012,06,25,05,45,10.60
2012,06,25,05,46,10.60
2012,06,25,05,47,10.60
2012,06,25,05,48,10.70
2012,06,25,05,49,10.70
2012,06,25,05,50,10.70
2012,06,25,05,51,10.80
2012,06,25,05,52,10.80
2012,06,25,05,53,10.80
2012,06,25,05,54,10.80
2012,06,25,05,55,10.80
2012,06,25,05,56,10.80
2012,06,25,05,57,10.90
2012,06,25,05,58,10.90
2012,06,25,05,59,10.90
2012,06,25,06,00,10.90
2012,06,25,06,01,10.90
2012,06,25,06,02,11.00
2012,06,25,06,03,11.00
2012,06,25,06,04,11.00
2012,06,25,06,05,11.10
2012,06,25,06,06,11.10
2012,06,25,06,07,11.10
2012,06,25,06,08,11.10
2012,06,25,06,09,11.10
2012,06,25,06,10,11.10
2012,06,25,06,11,11.10
2012,06,25,06,12,11.10
2012,06,25,06,13,11.20
2012,06,25,06,14,11.20
2012,06,25,06,15,11.20
2012,06,25,06,16,11.20
2012,06,25,06,17,11.20
2012,06,25,06,18,11.20
2012,06,25,06,19,11.30
2012,06,25,06,20,11.30
2012,06,25,06,21,11.30
2012,06,25,06,22,11.30
2012,06,25,06,23,11.30
2012,06,25,06,24,11.30
2012,06,25,06,25,11.30
2012,06,25,06,26,11.40
2012,06,25,06,27,11.40
2012,06,25,06,28,11.50
2012,06,25,06,29,11.60
2012,06,25,06,30,11.60
2012,06,25,06,31,11.60
2012,06,25,06,32,11.70
2012,06,25,06,33,11.70
2012,06,25,06,34,11.70
2012,06,25,06,35,11.70
2012,06,25,06,36,11.70
2012,06,25,06,37,11.70
2012,06,25,06,38,11.70
2012,06,25,06,39,11.70
2012,06,25,06,40,11.70
2012,06,25,06,41,11.80
2012,06,25,06,42,11.80
2012,06,25,06,43,11.80
2012,06,25,06,44,11.80
2012,06,25,06,45,11.80
2012,06,25,06,46,11.80
2012,06,25,06,47,11.80
2012,06,25,06,48,11.80
2012,06,25,06,49,11.90
2012,06,25,06,50,12.00
2012,06,25,06,51,12.00
2012,06,25,06,52,12.10
2012,06,25,06,53,12.20
2012,06,25,06,54,12.30
2012,06,25,06,55,12.30
2012,06,25,06,56,12.40
2012,06,25,06,57,12.50
2012,06,25,06,58,12.50
2012,06,25,06,59,12.60
2012,06,25,07,00,12.60
2012,06,25,07,01,12.70
2012,06,25,07,02,12.70
2012,06,25,07,03,12.70
2012,06,25,07,04,12.70
2012,06,25,07,05,12.80
2012,06,25,07,06,12.80
2012,06,25,07,07,12.80
2012,06,25,07,08,12.90
2012,06,25,07,09,12.90
2012,06,25,07,10,12.90
2012,06,25,07,11,12.80
2012,06,25,07,12,12.80
2012,06,25,07,13,12.80
2012,06,25,07,14,12.80
2012,06,25,07,15,12.80
2012,06,25,07,16,12.80
2012,06,25,07,17,12.80
2012,06,25,07,18,12.80
2012,06,25,07,19,12.80
2012,06,25,07,20,12.80
2012,06,25,07,21,12.80
2012,06,25,07,22,12.80
2012,06,25,07,23,12.80
2012,06,25,07,24,12.80
2012,06,25,07,25,12.90
2012,06,25,07,26,12.90
2012,06,25,07,27,12.90
2012,06,25,07,28,12.90
2012,06,25,07,29,12.90
2012,06,25,07,30,13.00
2012,06,25,07,31,13.00
2012,06,25,07,32,13.00
2012,06,25,07,33,13.00
2012,06,25,07,34,13.10
2012,06,25,07,35,13.10
2012,06,25,07,36,13.10
2012,06,25,07,37,13.10
2012,06,25,07,38,13.10
2012,06,25,07,39,13.10
2012,06,25,07,40,13.10
2012,06,25,07,41,13.20
2012,06,25,07,42,13.20
2012,06,25,07,43,13.30
2012,06,25,07,44,13.30
2012,06,25,07,45,13.30
2012,06,25,07,46,13.30
2012,06,25,07,47,13.40
2012,06,25,07,48,13.40
2012,06,25,07,49,13.50
2012,06,25,07,50,13.50
2012,06,25,07,51,13.60
2012,06,25,07,52,13.70
2012,06,25,07,53,13.70
2012,06,25,07,54,13.70
2012,06,25,07,55,13.70
2012,06,25,07,56,13.80
2012,06,25,07,57,13.80
2012,06,25,07,58,13.70
2012,06,25,07,59,13.70
2012,06,25,08,00,13.70
2012,06,25,08,01,13.70
2012,06,25,08,02,13.80
2012,06,25,08,03,13.80
2012,06,25,08,04,13.90
2012,06,25,08,05,14.00
2012,06,25,08,06,14.10
2012,06,25,08,07,14.30
2012,06,25,08,08,14.40
2012,06,25,08,09,14.50
2012,06,25,08,10,14.50
2012,06,25,08,11,14.60
2012,06,25,08,12,14.70
2012,06,25,08,13,14.70
2012,06,25,08,14,14.80
2012,06,25,08,15,14.80
2012,06,25,08,16,14.80
2012,06,25,08,17,14.80
2012,06,25,08,18,14.80
2012,06,25,08,19,14.80
2012,06,25,08,20,14.80
2012,06,25,08,21,14.80
2012,06,25,08,22,14.80
2012,06,25,08,23,14.80
2012,06,25,08,24,14.80
2012,06,25,08,25,14.80
2012,06,25,08,26,14.80
2012,06,25,08,27,14.80
2012,06,25,08,28,14.80
2012,06,25,08,29,14.80
2012,06,25,08,30,14.80
2012,06,25,08,31,14.90
2012,06,25,08,32,14.90
2012,06,25,08,33,14.90
2012,06,25,08,34,14.80
2012,06,25,08,35,14.80
2012,06,25,08,36,14.80
2012,06,25,08,37,14.90
2012,06,25,08,38,15.00
2012,06,25,08,39,15.10
2012,06,25,08,40,15.10
2012,06,25,08,41,15.10
2012,06,25,08,42,15.10
2012,06,25,08,43,15.10
2012,06,25,08,44,15.20
2012,06,25,08,45,15.30
2012,06,25,08,46,15.30
2012,06,25,08,47,15.40
2012,06,25,08,48,15.40
2012,06,25,08,49,15.40
2012,06,25,08,50,15.50
2012,06,25,08,51,15.50
2012,06,25,08,52,15.50
2012,06,25,08,53,15.50
2012,06,25,08,54,15.40
2012,06,25,08,55,15.30
2012,06,25,08,56,15.30
2012,06,25,08,57,15.20
2012,06,25,08,58,15.20
2012,06,25,08,59,15.10
2012,06,25,09,00,15.00
2012,06,25,09,01,15.00
2012,06,25,09,02,14.90
2012,06,25,09,03,14.80
2012,06,25,09,04,14.80
2012,06,25,09,05,14.80
2012,06,25,09,06,14.80
2012,06,25,09,07,14.80
2012,06,25,09,08,14.90
2012,06,25,09,09,14.90
2012,06,25,09,10,14.90
2012,06,25,09,11,14.90
2012,06,25,09,12,15.00
2012,06,25,09,13,15.10
2012,06,25,09,14,15.20
2012,06,25,09,15,15.20
2012,06,25,09,16,15.20
2012,06,25,09,17,15.20
2012,06,25,09,18,15.20
2012,06,25,09,19,15.10
2012,06,25,09,20,15.10
2012,06,25,09,21,15.20
2012,06,25,09,22,15.20
2012,06,25,09,23,15.20
2012,06,25,09,24,15.30
2012,06,25,09,25,15.40
2012,06,25,09,26,15.40
2012,06,25,09,27,15.40
2012,06,25,09,28,15.40
2012,06,25,09,29,15.40
2012,06,25,09,30,15.30
2012,06,25,09,31,15.30
2012,06,25,09,32,15.30
2012,06,25,09,33,15.20
2012,06,25,09,34,15.20
2012,06,25,09,35,15.30
2012,06,25,09,36,15.20
2012,06,25,09,37,15.20
2012,06,25,09,38,15.20
2012,06,25,09,39,15.20
2012,06,25,09,40,15.10
2012,06,25,09,41,15.10
2012,06,25,09,42,15.10
2012,06,25,09,43,15.10
2012,06,25,09,44,15.10
2012,06,25,09,45,15.10
2012,06,25,09,46,15.10
2012,06,25,09,47,15.10
2012,06,25,09,48,15.10
2012,06,25,09,49,15.10
2012,06,25,09,50,15.10
2012,06,25,09,51,15.10
2012,06,25,09,52,15.10
2012,06,25,09,53,15.20
2012,06,25,09,54,15.30
2012,06,25,09,55,15.40
2012,06,25,09,56,15.50
2012,06,25,09,57,15.60
2012,06,25,09,58,15.70
2012,06,25,09,59,15.70
2012,06,25,10,00,15.70
2012,06,25,10,01,15.80
2012,06,25,10,02,15.80
2012,06,25,10,03,15.80
2012,06,25,10,04,15.80
2012,06,25,10,05,15.80
2012,06,25,10,06,15.90
2012,06,25,10,07,15.90
2012,06,25,10,08,15.90
2012,06,25,10,09,15.90
2012,06,25,10,10,16.00
2012,06,25,10,11,16.00
2012,06,25,10,12,16.00
2012,06,25,10,13,16.00
2012,06,25,10,14,16.00
2012,06,25,10,15,16.00
2012,06,25,10,16,15.90
2012,06,25,10,17,15.80
2012,06,25,10,18,15.80
2012,06,25,10,19,15.80
2012,06,25,10,20,15.80
2012,06,25,10,21,15.80
2012,06,25,10,22,15.80
2012,06,25,10,23,15.90
2012,06,25,10,24,15.90
2012,06,25,10,25,16.00
2012,06,25,10,26,16.10
2012,06,25,10,27,16.20
2012,06,25,10,28,16.10
2012,06,25,10,29,16.10
2012,06,25,10,30,16.10
2012,06,25,10,31,16.10
2012,06,25,10,32,16.10
2012,06,25,10,33,16.10
2012,06,25,10,34,16.10
2012,06,25,10,35,16.00
2012,06,25,10,36,16.00
2012,06,25,10,37,16.00
2012,06,25,10,38,15.90
2012,06,25,10,39,15.90
2012,06,25,10,40,15.90
2012,06,25,10,41,15.90
2012,06,25,10,42,15.90
2012,06,25,10,43,15.90
2012,06,25,10,44,15.90
2012,06,25,10,45,16.00
2012,06,25,10,46,16.00
2012,06,25,10,47,16.00
2012,06,25,10,48,16.00
2012,06,25,10,49,16.00
2012,06,25,10,50,15.90
2012,06,25,10,51,15.90
2012,06,25,10,52,15.90
2012,06,25,10,53,15.80
2012,06,25,10,54,15.80
2012,06,25,10,55,15.80
2012,06,25,10,56,15.70
2012,06,25,10,57,15.70
2012,06,25,10,58,15.70
2012,06,25,10,59,15.70
2012,06,25,11,00,15.80
2012,06,25,11,01,15.80
2012,06,25,11,02,15.80
2012,06,25,11,03,15.70
2012,06,25,11,04,15.70
2012,06,25,11,05,15.60
2012,06,25,11,06,15.60
2012,06,25,11,07,15.70
2012,06,25,11,08,15.70
2012,06,25,11,09,15.80
2012,06,25,11,10,15.90
2012,06,25,11,11,16.00
2012,06,25,11,12,16.00
2012,06,25,11,13,16.10
2012,06,25,11,14,16.20
2012,06,25,11,15,16.30
2012,06,25,11,16,16.40
2012,06,25,11,17,16.40
2012,06,25,11,18,16.50
2012,06,25,11,19,16.50
2012,06,25,11,20,16.50
2012,06,25,11,21,16.60
2012,06,25,11,22,16.60
2012,06,25,11,23,16.70
2012,06,25,11,24,16.70
2012,06,25,11,25,16.80
2012,06,25,11,26,16.80
2012,06,25,11,27,16.80
2012,06,25,11,28,16.80
2012,06,25,11,29,16.80
2012,06,25,11,30,16.90
2012,06,25,11,31,16.90
2012,06,25,11,32,16.90
2012,06,25,11,33,17.00
2012,06,25,11,34,17.00
2012,06,25,11,35,17.10
2012,06,25,11,36,17.20
2012,06,25,11,37,17.40
2012,06,25,11,38,17.50
2012,06,25,11,39,17.60
2012,06,25,11,40,17.60
2012,06,25,11,41,17.50
2012,06,25,11,42,17.40
2012,06,25,11,43,17.40
2012,06,25,11,44,17.50
2012,06,25,11,45,17.50
2012,06,25,11,46,17.60
2012,06,25,11,47,17.50
2012,06,25,11,48,17.40
2012,06,25,11,49,17.30
2012,06,25,11,50,17.20
2012,06,25,11,51,17.20
2012,06,25,11,52,17.20
2012,06,25,11,53,17.30
2012,06,25,11,54,17.20
2012,06,25,11,55,17.20
2012,06,25,11,56,17.20
2012,06,25,11,57,17.20
2012,06,25,11,58,17.30
2012,06,25,11,59,17.20
2012,06,25,12,00,17.20
2012,06,25,12,01,17.20
2012,06,25,12,02,17.20
2012,06,25,12,03,17.20
2012,06,25,12,04,17.20
2012,06,25,12,05,17.20
2012,06,25,12,06,17.20
2012,06,25,12,07,17.20
2012,06,25,12,08,17.20
2012,06,25,12,09,17.20
2012,06,25,12,10,17.10
2012,06,25,12,11,17.10
2012,06,25,12,12,17.00
2012,06,25,12,13,16.80
2012,06,25,12,14,16.70
2012,06,25,12,15,16.50
2012,06,25,12,16,16.40
2012,06,25,12,17,16.30
2012,06,25,12,18,16.20
2012,06,25,12,19,16.20
2012,06,25,12,20,16.20
2012,06,25,12,21,16.10
2012,06,25,12,22,16.10
2012,06,25,12,23,16.10
2012,06,25,12,24,16.10
2012,06,25,12,25,16.20
2012,06,25,12,26,16.30
2012,06,25,12,27,16.40
2012,06,25,12,28,16.50
2012,06,25,12,29,16.60
2012,06,25,12,30,16.60
2012,06,25,12,31,16.60
2012,06,25,12,32,16.60
2012,06,25,12,33,16.70
2012,06,25,12,34,16.70
2012,06,25,12,35,16.80
2012,06,25,12,36,16.80
2012,06,25,12,37,16.90
2012,06,25,12,38,16.90
2012,06,25,12,39,16.90
2012,06,25,12,40,17.00
2012,06,25,12,41,17.00
2012,06,25,12,42,17.10
2012,06,25,12,43,17.20
2012,06,25,12,44,17.20
2012,06,25,12,45,17.30
2012,06,25,12,46,17.40
2012,06,25,12,47,17.50
2012,06,25,12,48,17.60
2012,06,25,12,49,17.60
2012,06,25,12,50,17.60
2012,06,25,12,51,17.60
2012,06,25,12,52,17.60
2012,06,25,12,53,17.60
2012,06,25,12,54,17.60
2012,06,25,12,55,17.60
2012,06,25,12,56,17.70
2012,06,25,12,57,17.70
2012,06,25,12,58,17.80
2012,06,25,12,59,17.80
2012,06,25,13,00,17.80
2012,06,25,13,01,17.80
2012,06,25,13,02,17.90
2012,06,25,13,03,17.90
2012,06,25,13,04,17.90
2012,06,25,13,05,17.90
2012,06,25,13,06,17.90
2012,06,25,13,07,17.90
2012,06,25,13,08,18.00
2012,06,25,13,09,17.90
2012,06,25,13,10,17.90
2012,06,25,13,11,17.80
2012,06,25,13,12,17.80
2012,06,25,13,13,17.60
2012,06,25,13,14,17.50
2012,06,25,13,15,17.40
2012,06,25,13,16,17.30
2012,06,25,13,17,17.20
2012,06,25,13,18,17.20
2012,06,25,13,19,17.20
2012,06,25,13,20,17.20
2012,06,25,13,21,17.30
2012,06,25,13,22,17.30
2012,06,25,13,23,17.30
2012,06,25,13,24,17.30
2012,06,25,13,25,17.30
2012,06,25,13,26,17.30
2012,06,25,13,27,17.30
2012,06,25,13,28,17.30
2012,06,25,13,29,17.30
2012,06,25,13,30,17.30
2012,06,25,13,31,17.30
2012,06,25,13,32,17.20
2012,06,25,13,33,17.10
2012,06,25,13,34,17.10
2012,06,25,13,35,17.00
2012,06,25,13,36,16.90
2012,06,25,13,37,16.90
2012,06,25,13,38,16.80
2012,06,25,13,39,16.70
2012,06,25,13,40,16.60
2012,06,25,13,41,16.50
2012,06,25,13,42,16.50
2012,06,25,13,43,16.40
2012,06,25,13,44,16.30
2012,06,25,13,45,16.20
2012,06,25,13,46,16.00
2012,06,25,13,47,15.80
2012,06,25,13,48,15.60
2012,06,25,13,49,15.40
2012,06,25,13,50,15.30
2012,06,25,13,51,15.30
2012,06,25,13,52,15.20
2012,06,25,13,53,15.20
2012,06,25,13,54,15.20
2012,06,25,13,55,15.20
2012,06,25,13,56,15.30
2012,06,25,13,57,15.30
2012,06,25,13,58,15.30
2012,06,25,13,59,15.40
2012,06,25,14,00,15.40
2012,06,25,14,01,15.40
2012,06,25,14,02,15.50
2012,06,25,14,03,15.50
2012,06,25,14,04,15.60
2012,06,25,14,05,15.60
2012,06,25,14,06,15.60
2012,06,25,14,07,15.60
2012,06,25,14,08,15.60
2012,06,25,14,09,15.60
2012,06,25,14,10,15.70
2012,06,25,14,11,15.70
2012,06,25,14,12,15.80
2012,06,25,14,13,15.80
2012,06,25,14,14,15.80
2012,06,25,14,15,15.80
2012,06,25,14,16,15.80
2012,06,25,14,17,15.80
2012,06,25,14,18,15.80
2012,06,25,14,19,15.90
2012,06,25,14,20,15.90
2012,06,25,14,21,15.90
2012,06,25,14,22,15.90
2012,06,25,14,23,15.90
2012,06,25,14,24,15.90
2012,06,25,14,25,16.00
2012,06,25,14,26,16.00
2012,06,25,14,27,16.00
2012,06,25,14,28,16.10
2012,06,25,14,29,16.00
2012,06,25,14,30,16.00
2012,06,25,14,31,16.00
2012,06,25,14,32,16.00
2012,06,25,14,33,16.00
2012,06,25,14,34,16.00
2012,06,25,14,35,16.00
2012,06,25,14,36,16.00
2012,06,25,14,37,16.00
2012,06,25,14,38,16.00
2012,06,25,14,39,16.00
2012,06,25,14,40,16.00
2012,06,25,14,41,16.00
2012,06,25,14,42,16.10
2012,06,25,14,43,16.10
2012,06,25,14,44,16.20
2012,06,25,14,45,16.20
2012,06,25,14,46,16.20
2012,06,25,14,47,16.20
2012,06,25,14,48,16.30
2012,06,25,14,49,16.30
2012,06,25,14,50,16.30
2012,06,25,14,51,16.30
2012,06,25,14,52,16.40
2012,06,25,14,53,16.40
2012,06,25,14,54,16.50
2012,06,25,14,55,16.60
2012,06,25,14,56,16.60
2012,06,25,14,57,16.70
2012,06,25,14,58,16.70
2012,06,25,14,59,16.70
2012,06,25,15,00,16.70
2012,06,25,15,01,16.60
2012,06,25,15,02,16.60
2012,06,25,15,03,16.70
2012,06,25,15,04,16.70
2012,06,25,15,05,16.70
2012,06,25,15,06,16.70
2012,06,25,15,07,16.80
2012,06,25,15,08,16.80
2012,06,25,15,09,16.90
2012,06,25,15,10,16.90
2012,06,25,15,11,16.90
2012,06,25,15,12,17.00
2012,06,25,15,13,17.00
2012,06,25,15,14,17.10
2012,06,25,15,15,17.10
2012,06,25,15,16,17.20
2012,06,25,15,17,17.30
2012,06,25,15,18,17.40
2012,06,25,15,19,17.50
2012,06,25,15,20,17.60
2012,06,25,15,21,17.70
2012,06,25,15,22,17.80
2012,06,25,15,23,17.90
2012,06,25,15,24,18.00
2012,06,25,15,25,18.10
2012,06,25,15,26,18.20
2012,06,25,15,27,18.20
2012,06,25,15,28,18.30
2012,06,25,15,29,18.40
2012,06,25,15,30,18.50
2012,06,25,15,31,18.50
2012,06,25,15,32,18.60
2012,06,25,15,33,18.70
2012,06,25,15,34,18.80
2012,06,25,15,35,18.90
2012,06,25,15,36,19.00
2012,06,25,15,37,19.10
2012,06,25,15,38,19.10
2012,06,25,15,39,19.20
2012,06,25,15,40,19.30
2012,06,25,15,41,19.40
2012,06,25,15,42,19.50
2012,06,25,15,43,19.50
2012,06,25,15,44,19.50
2012,06,25,15,45,19.60
2012,06,25,15,46,19.60
2012,06,25,15,47,19.60
2012,06,25,15,48,19.50
2012,06,25,15,49,19.50
2012,06,25,15,50,19.50
2012,06,25,15,51,19.40
2012,06,25,15,52,19.30
2012,06,25,15,53,19.10
2012,06,25,15,54,18.90
2012,06,25,15,55,18.70
2012,06,25,15,56,18.50
2012,06,25,15,57,18.30
2012,06,25,15,58,18.20
2012,06,25,15,59,18.00
2012,06,25,16,00,17.90
2012,06,25,16,01,17.80
2012,06,25,16,02,17.60
2012,06,25,16,03,17.50
2012,06,25,16,04,17.40
2012,06,25,16,05,17.30
2012,06,25,16,06,17.20
2012,06,25,16,07,17.10
2012,06,25,16,08,17.00
2012,06,25,16,09,16.90
2012,06,25,16,10,16.80
2012,06,25,16,11,16.80
2012,06,25,16,12,16.80
2012,06,25,16,13,16.70
2012,06,25,16,14,16.80
2012,06,25,16,15,16.80
2012,06,25,16,16,16.80
2012,06,25,16,17,16.70
2012,06,25,16,18,16.70
2012,06,25,16,19,16.70
2012,06,25,16,20,16.80
2012,06,25,16,21,16.80
2012,06,25,16,22,16.90
2012,06,25,16,23,17.00
2012,06,25,16,24,17.00
2012,06,25,16,25,17.10
2012,06,25,16,26,17.20
2012,06,25,16,27,17.20
2012,06,25,16,28,17.30
2012,06,25,16,29,17.30
2012,06,25,16,30,17.30
2012,06,25,16,31,17.40
2012,06,25,16,32,17.50
2012,06,25,16,33,17.50
2012,06,25,16,34,17.60
2012,06,25,16,35,17.70
2012,06,25,16,36,17.80
2012,06,25,16,37,18.00
2012,06,25,16,38,18.10
2012,06,25,16,39,18.20
2012,06,25,16,40,18.30
2012,06,25,16,41,18.40
2012,06,25,16,42,18.50
2012,06,25,16,43,18.60
2012,06,25,16,44,18.70
2012,06,25,16,45,18.70
2012,06,25,16,46,18.70
2012,06,25,16,47,18.80
2012,06,25,16,48,18.80
2012,06,25,16,49,18.90
2012,06,25,16,50,18.90
2012,06,25,16,51,19.00
2012,06,25,16,52,19.00
2012,06,25,16,53,19.10
2012,06,25,16,54,19.10
2012,06,25,16,55,19.10
2012,06,25,16,56,19.10
2012,06,25,16,57,19.10
2012,06,25,16,58,19.10
2012,06,25,16,59,19.10
2012,06,25,17,00,19.10
2012,06,25,17,01,19.10
2012,06,25,17,02,19.10
2012,06,25,17,03,19.10
2012,06,25,17,04,19.10
2012,06,25,17,05,19.10
2012,06,25,17,06,18.90
2012,06,25,17,07,18.70
2012,06,25,17,08,18.50
2012,06,25,17,09,18.40
2012,06,25,17,10,18.20
2012,06,25,17,11,18.10
2012,06,25,17,12,18.00
2012,06,25,17,13,17.90
2012,06,25,17,14,17.80
2012,06,25,17,15,17.80
2012,06,25,17,16,17.80
2012,06,25,17,17,17.70
2012,06,25,17,18,17.80
2012,06,25,17,19,17.80